Location: Deuil
(48.9767°N, 2.3272°E)
Time: 22:38:13
(UTC+00:00)

ISS - Visible Passes

Search period start: 26 January 2022 00:00
Search period end: 05 February 2022 00:00
Orbit: 413 x 422 km, 51.6° (Epoch: 26 January)

Date Brightness Start Highest point End Pass type
(mag) Time Alt. Az. Time Alt. Az. Time Alt. Az.
26 Jan -3.7 17:14:58 10° W 17:18:17 72° NNW 17:21:38 10° ENE visible
26 Jan -2.8 18:52:01 10° WNW 18:54:35 42° NW 18:54:35 42° NW visible
27 Jan -3.4 18:03:54 10° WNW 18:07:11 51° N 18:08:31 30° ENE visible
27 Jan -0.6 19:40:48 10° WNW 19:41:27 15° WNW 19:41:27 15° WNW visible
28 Jan -3.4 17:15:46 10° W 17:19:03 53° N 17:22:20 10° ENE visible
28 Jan -3.1 18:52:45 10° WNW 18:55:24 50° NW 18:55:24 50° NW visible
29 Jan -3.6 18:04:40 10° WNW 18:07:58 57° N 18:09:24 29° ENE visible
29 Jan -0.7 19:41:30 10° WNW 19:42:20 16° WNW 19:42:20 16° WNW visible
30 Jan -3.4 17:16:34 10° WNW 17:19:50 52° N 17:23:07 10° E visible
30 Jan -3.4 18:53:24 10° WNW 18:56:23 64° WSW 18:56:23 64° WSW visible
31 Jan -3.9 18:05:20 10° WNW 18:08:42 83° NNE 18:10:29 25° ESE visible
31 Jan -0.8 19:42:25 10° W 19:43:27 16° W 19:43:27 16° W visible
01 Feb -3.7 17:17:16 10° WNW 17:20:36 66° NNE 17:23:56 10° E visible
01 Feb -2.6 18:54:10 10° W 18:57:16 36° SSW 18:57:40 34° SSW visible
02 Feb -3.1 18:06:00 10° WNW 18:09:17 53° SSW 18:12:02 14° SE visible
02 Feb -0.5 19:44:28 10° WSW 19:45:00 11° SW 19:45:00 11° SW visible
03 Feb -3.6 17:17:54 10° WNW 17:21:15 76° SSW 17:24:35 10° ESE visible
03 Feb -1.1 18:55:21 10° W 18:57:35 17° SW 18:59:32 11° S visible
04 Feb -1.6 18:06:53 10° W 18:09:42 25° SW 18:12:30 10° SSE visible
